Regional Weather Roundup
Issued by NWS

Home | Current Version | Previous Version | Graphics & Text | Print | Product List | Glossary On
Versions: 1 2 3 4 5 6 7 8 9 10 11 12 13 14 15 16 17 18 19 20 21 22 23 24 25 26 27 28 29 30 31 32 33 34 35 36 37 38 39 40 41 42 43 44 45 46 47 48 49 50
111
ASUS43 KDTX 271401
RWRMI
MICHIGAN HOURLY REGIONAL WEATHER ROUNDUP
NATIONAL WEATHER SERVICE DETROIT/PONTIAC MI
1000 AM EDT THU APR 27 2017

NOTE: "FAIR" INDICATES FEW OR NO CLOUDS BELOW 12,000 FEET WITH NO
SIGNIFICANT WEATHER AND/OR OBSTRUCTION TO VISIBILITY.

MIZ047>049-052>055-059>063-066>070-074>076-081>083-271500-
SOUTHEAST LOWER MICHIGAN

CITY           SKY/WX    TMP DP  RH WIND       PRES   REMARKS
ADRIAN         CLOUDY    67  53  61 SW21G38   29.51F
ALMA           PTSUNNY   69  54  59 S24G33    29.39F
ANN ARBOR      CLOUDY    68  54  60 S22G29    29.51S
BAD AXE        MOSUNNY   70  56  60 S22       29.49S
CARO           MOSUNNY   70  56  60 S16       29.45F
DETROIT CITY   CLOUDY    72  57  59 S12G17    29.51F
DETROIT        CLOUDY    72  53  51 S14       29.52S
FLINT          CLOUDY    69  53  56 S22G39    29.47S
GROSSE ILE     CLOUDY    65  56  73 S7        29.51S
HILLSDALE      CLOUDY    64  52  63 S18G28    29.47F
HOWELL         CLOUDY    68  51  54 S26G33    29.47F

CITY           SKY/WX    TMP DP  RH WIND       PRES   REMARKS
JACKSON        PTSUNNY   66  54  65 S16G35    29.46F
LAMBERTVILLE   CLOUDY    69  51  54 S8G17     29.52S
LANSING        CLOUDY    68  51  54 S25G37    29.43F
LAPEER         FAIR      70  54  57 S21       29.49F
MASON          CLOUDY    66  54  66 S13G31    29.44F
MONROE         CLOUDY    70  53  54 S9G17     29.52R
MT. CLEMENS    PTSUNNY   68  59  72 S10       29.50F
PONTIAC        CLOUDY    68  52  56 S13G20    29.50R
PORT HOPE        N/A     70  56  61 S9G17     29.46S
PORT HURON     PTSUNNY   72  54  53 S20G28    29.52S
TRI CITIES     CLOUDY    71  54  54 S17G32    29.42F
MIDLAND        PTSUNNY   71  51  48 S18G28    29.39F
TROY           CLOUDY    72  50  46 S15       29.53S
SAGINAW HB     PTSUNNY   70  50  49 S23G32    29.42F
$$
MIZ043>046-050>051-056>058-064>065-071>073-077>080-271500-
SOUTHWEST LOWER MICHIGAN

CITY           SKY/WX    TMP DP  RH WIND       PRES   REMARKS
BATTLE CREEK   CLOUDY    64  54  69 S24G41    29.43R
BENTON HARBOR  PTSUNNY   57  48  72 SW30G41   29.43R
BIG RAPIDS     CLOUDY    63  53  68 S16G22    29.35S
COLDWATER      PTSUNNY   65  55  68 S15G25    29.46S
FREMONT        CLOUDY    61  55  78 S18G28    29.33S
HOLLAND        CLOUDY    64  52  64 SW22G35   29.37R
GRAND RAPIDS   CLOUDY    64  55  72 S20G31    29.38S
IONIA          CLOUDY    66  52  60 S28G40    29.39F
KALAMAZOO      CLOUDY    65  51  60 S28G40    29.42R
LUDINGTON      CLOUDY    59  56  87 S15G24    29.28F
MARSHALL       CLOUDY    65  54  65 S23G33    29.45S
MOUNT PLEASANT PTSUNNY   69  52  55 S17G31    29.38F
MUSKEGON       PTSUNNY   64  54  69 S26G44    29.33R
SOUTH HAVEN    PTSUNNY   59  51  74 SW23G46   29.41R
$$
MIZ016>042-271500-
NORTHERN LOWER MICHIGAN

CITY           SKY/WX    TMP DP  RH WIND       PRES   REMARKS
ALPENA         MOSUNNY   70  56  61 S21G28    29.41S
BEAVER ISLAND  PTSUNNY   61  58  90 S7        29.27F
BELLAIRE       PTSUNNY   68  53  59 S20G29    29.30S
CADILLAC       CLOUDY    63  53  71 S25G36    29.33S
CHARLEVOIX     MOSUNNY   69  59  70 S9        29.30F
FRANKFORT      CLOUDY    62  56  79 S16G23    29.28S
GAYLORD        PTSUNNY   68  52  56 S21G35    29.34F
GRAYLING       CLOUDY    66  54  64 S22G28    29.36S
HARBOR SPRINGS CLOUDY    69  58  67 S12       29.30F
HOUGHTON LAKE  PTSUNNY   68  55  63 S17G26    29.37S
MANISTEE       CLOUDY    60  56  86 S9G20     29.28S
OSCODA         MOSUNNY   71  53  54 S21G29    29.43S
PELLSTON       PTSUNNY   67  57  70 SE8       29.30F
ROGERS CITY    MOSUNNY   67  55  66 SE9       29.39S
TRAVERSE CITY  CLOUDY    67  54  63 S13G29    29.28R
$$
MIZ007>008-015-271500-
EASTERN UPPER MICHIGAN

CITY           SKY/WX    TMP DP  RH WIND       PRES   REMARKS
KINROSS        CLOUDY    56  53  90 SE17      29.33F
MACKINAC ISLAN CLOUDY    62  60  93 SE10G17   29.32F
NEWBERRY       FOG       46  45  97 NW3       29.29S VSB 1/4
S. S. MARIE    MOSUNNY   55  50  83 E9        29.34S
MUNISING         N/A     34  33  96 NW17      29.33F WCI  23
$$
MIZ004>006-011>014-085-271500-
CENTRAL UPPER MICHIGAN

CITY           SKY/WX    TMP DP  RH WIND       PRES   REMARKS
MANISTIQUE     DRIZZLE   37  36  97 N10G16    29.30S WCI  29
ESCANABA       LGT RAIN  35  34  96 VRB5      29.29F WCI  31
MENOMINEE      LGT RAIN  38  36  92 N8        29.30S FOG     WCI  32
SAWYER-GWINN   LGT RAIN  32  30  93 N9        29.33F WCI  24
$$
MIZ001>003-009>011-084-271500-
WESTERN UPPER MICHIGAN

CITY           SKY/WX    TMP DP  RH WIND       PRES   REMARKS
IRON MOUNTAIN  RAIN      34  30  85 N14G20    29.29S FOG     WCI  25
HOUGHTON       SNOW      29  26  89 N10G20    29.38F VSB 1/2 WCI  20
COPPER HARBOR    N/A     32  30  92 NE24      29.38  WCI  19
IRONWOOD       LGT SNOW  26  25  96 NW10G17   29.44F VSB 1   WCI  16
$$

ABBREVIATIONS USED IN REMARKS
   TC - TEMPERATURE IN CELSIUS
  WCI - WIND CHILL INDEX
   HX - HEAT INDEX
  VSB - VISIBILITY





USA.gov is the U.S. government's official web portal to all federal, state and local government web resources and services.